Notices

What's New in latest Release from April 7th, 2021:

- Updated Glossary, including Speed of Maximum Gust, and Total Hourly Precipitation

- Updated national and regional climate services offices contacts and prices information

- Addition of station inventory lists for 1981-2010, 1971-2000, and 1961-1990 Normals.

If you haven't already, please take our survey and provide feedback about our website: https://eccc.sondage-survey.ca/f/LanguageSelection.aspx?s=442ca660-fcf1-47c0-95a9-59707d6fd709

Hourly Data Report for November 11, 2019

EUREKA CLIMATE
NUNAVUT
Current Station Operator: ECCC - MSC

79°59'21.000" N
85°56'02.000" W
10.00 m
2401199
71613
NEK

Download Data

Hourly Data (November 2019)
Hourly Data Report for November 11, 2019
TIME
LST
Temp Definition
°C
Dew Point Definition
°C
Rel Hum Definition
%
Precip. Amount Definition
mm

Wind Dir Definition
10's deg

Wind Spd Definition
km/h
Visibility Definition
km
Stn Press Definition
kPa
Hmdx Definition


Wind Chill Definition


Weather Definition


00:00 -35.1 -38.5 71 0.0 6 6   101.01   -42 LegendNANA
01:00 -35.5 -38.9 71 0.0 8 4   100.99   -41 LegendNANA
02:00 -36.1 -39.7 69 0.0 7 6   100.98   -44 LegendNANA
03:00 -35.9 -39.3 71 0.0 4 5   101.00   -42 LegendNANA
04:00 -35.8 -39.3 70 0.0 9 6   100.98   -43 LegendNANA
05:00 -36.0 -39.6 70 0.0 8 5   100.95   -42 LegendNANA
06:00 -35.6 -39.1 70 0.0 9 6   100.95   -43 LegendNANA
07:00 -35.2 -38.6 71 0.0 9 7   100.94   -43 LegendNANA
08:00 -35.5 -39.0 70 0.0 10 5   100.95   -42 LegendNANA
09:00 -36.1 -39.6 70 0.0 5 1   100.93   -37 LegendNANA
10:00 -35.5 -39.1 70 0.0 9 7   100.95   -44 LegendNANA
11:00 -36.1 -39.6 70 0.0 8 3   100.97   -40 LegendNANA
12:00 -35.9 -39.4 70 0.0 10 4   100.97   -41 LegendNANA
13:00 -35.6 -39.1 70 0.0 10 5   100.99   -42 LegendNANA
14:00 -35.3 -38.8 71 0.0 11 5   101.02   -42 LegendNANA
15:00 -35.3 -38.8 70 0.0 10 2   101.03   -38 LegendNANA
16:00 -35.9 -39.4 70 0.0 9 4   101.04   -41 LegendNANA
17:00 -35.9 -39.4 70 0.0 6 4   101.05   -41 LegendNANA
18:00 -35.8 -39.3 70 0.0 5 2   101.08   -38 LegendNANA
19:00 -36.0 -39.6 70 0.0 0 1   101.06   -37 LegendNANA
20:00 -36.2 -39.8 70 0.0 8 3   101.07   -40 LegendNANA
21:00 -35.7 -39.2 70 0.0 7 3   101.07   -40 LegendNANA
22:00 -35.8 -39.3 70 0.0 0 1   101.07   -37 LegendNANA
23:00 -36.1 -39.7 69 0.0 7 2   101.09   -39 LegendNANA

Notes on Data Quality.

Legend

  • E = Estimated
  • M = Missing
  • NA = Not Available*
  • [empty] = Indicates an unobserved value
Date modified: